GW3202 Weather Reports


Display with metric or nautical units.
time (UTC)temp
F
wind
direction
speed
MPH
gust
MPH
rain 1hr
in
rain 24hr
in
rain mn
in
humidity
%
barometer
mb
20260507082004 64 285 0.0 2.0 0.00 0.00 0.00 76 1019.6
20260507075004 64 67 2.0 3.0 0.00 0.00 0.00 75 1019.9
20260507074003 65 113 2.0 3.0 0.00 0.00 0.00 75 1020.0
20260507073004 65 107 1.0 3.0 0.00 0.00 0.00 74 1020.2
20260507072004 65 110 2.0 5.0 0.00 0.00 0.00 73 1020.0
20260507071006 65 129 3.0 5.0 0.00 0.00 0.00 73 1020.3
20260507070009 65 150 1.0 3.0 0.00 0.00 0.00 74 1020.3
20260507065004 65 15 0.0 3.0 0.00 0.00 0.00 73 1020.5
20260507064004 65 96 2.0 3.0 0.00 0.00 0.00 71 1020.5
20260507062004 65 113 1.0 3.0 0.00 0.00 0.00 70 1020.5
20260507060004 65 81 1.0 3.0 0.00 0.00 0.00 69 1020.7
20260507055004 65 105 1.0 3.0 0.00 0.00 0.00 69 1020.8
20260507054004 65 254 0.0 5.0 0.00 0.00 0.00 69 1020.7
20260507053004 65 269 1.0 6.0 0.00 0.00 0.00 68 1020.8
20260507052004 66 333 3.0 5.0 0.00 0.00 0.00 65 1020.6
20260507051004 67 273 1.0 2.0 0.00 0.00 0.00 64 1020.5
20260507050004 67 264 2.0 7.0 0.00 0.00 0.00 63 1020.6
20260507045004 69 6 1.0 5.0 0.00 0.00 0.00 66 1020.5
20260507044004 69 180 0.0 2.0 0.00 0.00 0.00 71 1020.6
20260507043004 69 273 0.0 6.0 0.00 0.00 0.00 72 1020.5
20260507042004 69 255 2.0 9.0 0.00 0.00 0.00 71 1020.5
20260507041004 70 111 4.0 9.0 0.00 0.00 0.00 72 1020.5
20260507040005 70 139 2.0 17.0 0.00 0.00 0.00 74 1020.2
20260507034005 70 135 12.0 22.0 0.00 0.00 0.00 74 1020.0
20260507033005 70 157 10.0 26.0 0.00 0.00 0.00 73 1019.8
20260507032027 70 134 6.0 23.0 0.00 0.00 0.00 73 1019.8
20260507031005 70 131 8.0 17.0 0.00 0.00 0.00 72 1019.7
20260507025004 71 144 10.0 25.0 0.00 0.00 0.00 69 1019.2
20260507024004 71 151 14.0 26.0 0.00 0.00 0.00 69 1019.1
20260507023004 71 125 13.0 28.0 0.00 0.00 0.00 66 1018.9
20260507022003 72 126 12.0 28.0 0.00 0.00 0.00 62 1018.9
20260507021004 72 124 12.0 26.0 0.00 0.00 0.00 63 1018.5
20260507020005 72 143 8.0 25.0 0.00 0.00 0.00 61 1018.5
20260507015004 73 140 11.0 25.0 0.00 0.00 0.00 60 1018.2
20260507014004 73 150 17.0 26.0 0.00 0.00 0.00 60 1018.1
20260507013004 73 152 13.0 35.0 0.00 0.00 0.00 59 1018.1
20260507012004 73 151 4.0 35.0 0.00 0.00 0.00 62 1018.1
20260507011004 74 167 13.0 28.0 0.00 0.00 0.00 62 1017.9
20260507010005 75 157 20.0 26.0 0.00 0.00 0.00 60 1017.9
20260507005004 75 159 16.0 29.0 0.00 0.00 0.00 58 1017.7
20260507004004 77 166 10.0 26.0 0.00 0.00 0.00 55 1017.5
20260507002004 78 153 14.0 25.0 0.00 0.00 0.00 53 1017.4
20260507001004 79 139 11.0 28.0 0.00 0.00 0.00 53 1017.3
20260507000005 79 182 9.0 22.0 0.00 0.00 0.00 49 1017.4
20260506235005 80 196 6.0 25.0 0.00 0.00 0.00 50 1017.4
20260506234005 81 162 7.0 25.0 0.00 0.00 0.00 46 1017.3
20260506233005 81 150 16.0 25.0 0.00 0.00 0.00 46 1017.4
20260506232005 82 198 8.0 22.0 0.00 0.00 0.00 46 1017.2
20260506231005 82 151 10.0 26.0 0.00 0.00 0.00 45 1017.2
20260506230006 82 154 5.0 22.0 0.00 0.00 0.00 47 1017.3
20260506224005 82 172 15.0 24.0 0.00 0.00 0.00 48 1017.2
20260506223004 83 155 12.0 20.0 0.00 0.00 0.00 48 1017.2
20260506222005 83 163 10.0 24.0 0.00 0.00 0.00 48 1017.3
20260506221025 84 202 6.0 28.0 0.00 0.00 0.00 49 1017.4
20260506220004 84 167 13.0 31.0 0.00 0.00 0.00 50 1017.4
20260506214004 85 146 6.0 22.0 0.00 0.00 0.00 49 1017.7
20260506213004 85 151 12.0 24.0 0.00 0.00 0.00 47 1017.6
20260506211004 85 166 8.0 25.0 0.00 0.00 0.00 44 1017.7
20260506210004 87 160 7.0 21.0 0.00 0.00 0.00 43 1017.8
20260506205004 86 153 12.0 21.0 0.00 0.00 0.00 43 1017.9
20260506204004 86 119 2.0 25.0 0.00 0.00 0.00 43 1017.9
20260506203004 86 137 6.0 22.0 0.00 0.00 0.00 44 1018.0
20260506202004 86 158 6.0 20.0 0.00 0.00 0.00 42 1018.2
20260506201004 86 142 8.0 20.0 0.00 0.00 0.00 43 1018.3
20260506200005 87 196 9.0 18.0 0.00 0.00 0.00 39 1018.5
20260506195004 86 241 5.0 16.0 0.00 0.00 0.00 40 1018.8
20260506194004 87 200 5.0 15.0 0.00 0.00 0.00 38 1018.7
20260506193004 87 257 5.0 15.0 0.00 0.00 0.00 39 1018.7
20260506191004 87 223 3.0 17.0 0.00 0.00 0.00 40 1019.0
20260506190005 86 177 5.0 17.0 0.00 0.00 0.00 41 1019.3
20260506185004 87 237 6.0 14.0 0.00 0.00 0.00 39 1019.3
20260506184004 88 195 3.0 12.0 0.00 0.00 0.00 39 1019.4
20260506183005 86 191 4.0 10.0 0.00 0.00 0.00 40 1019.5
20260506182004 86 251 4.0 10.0 0.00 0.00 0.00 40 1019.7
20260506181006 86 222 4.0 10.0 0.00 0.00 0.00 41 1019.7
20260506180003 85 204 4.0 15.0 0.00 0.00 0.00 42 1019.7
20260506175003 83 169 6.0 15.0 0.00 0.00 0.00 45 1019.8
20260506173003 83 158 3.0 15.0 0.00 0.00 0.00 44 1020.0
20260506172003 82 159 7.0 17.0 0.00 0.00 0.00 44 1020.2
20260506171003 82 162 5.0 14.0 0.00 0.00 0.00 44 1020.3
20260506165003 82 175 4.0 12.0 0.00 0.00 0.00 46 1020.4
20260506164003 83 163 5.0 10.0 0.00 0.00 0.00 44 1020.3
20260506163003 81 133 6.0 10.0 0.00 0.00 0.00 47 1020.4
20260506162003 81 239 5.0 9.0 0.00 0.00 0.00 47 1020.3
20260506161003 79 302 3.0 5.0 0.00 0.00 0.00 50 1020.5
20260506160002 79 200 1.0 5.0 0.00 0.00 0.00 51 1020.4
20260506155003 77 52 2.0 3.0 0.00 0.00 0.00 53 1020.4
20260506154003 78 168 0.0 2.0 0.00 0.00 0.00 52 1020.3
20260506153003 75 274 1.0 5.0 0.00 0.00 0.00 55 1020.3
20260506152002 74 328 2.0 5.0 0.00 0.00 0.00 56 1020.4
20260506151003 74 76 1.0 3.0 0.00 0.00 0.00 56 1020.2
20260506150002 72 343 2.0 2.0 0.00 0.00 0.00 58 1020.4
20260506145002 73 123 1.0 3.0 0.00 0.00 0.00 58 1020.4
20260506144003 70 42 1.0 3.0 0.00 0.00 0.00 62 1020.3
20260506143002 70 351 0.0 3.0 0.00 0.00 0.00 63 1020.4
20260506142003 70 50 2.0 3.0 0.00 0.00 0.00 63 1020.3
20260506141003 70 57 1.0 3.0 0.00 0.00 0.00 64 1020.2
20260506140003 69 139 1.0 3.0 0.00 0.00 0.00 67 1020.2
20260506135002 68 63 1.0 3.0 0.00 0.00 0.00 66 1020.2
20260506134003 66 124 2.0 5.0 0.00 0.00 0.00 69 1020.2
20260506132003 64 118 1.0 2.0 0.00 0.00 0.00 74 1020.1
20260506130003 61 121 2.0 3.0 0.00 0.00 0.00 79 1019.9
20260506124003 60 122 1.0 3.0 0.00 0.00 0.00 81 1019.7
20260506123003 61 133 2.0 3.0 0.00 0.00 0.00 81 1019.8
20260506122003 61 131 1.0 2.0 0.00 0.00 0.00 81 1019.6
20260506121002 61 113 0.0 3.0 0.00 0.00 0.00 79 1019.6
20260506120003 60 150 2.0 2.0 0.00 0.00 0.00 80 1019.7
20260506115003 60 127 0.0 2.0 0.00 0.00 0.00 79 1019.4
20260506114002 60 133 2.0 2.0 0.00 0.00 0.00 79 1019.5
20260506113002 60 277 1.0 3.0 0.00 0.00 0.00 79 1019.5
20260506112002 61 92 0.0 2.0 0.00 0.00 0.00 80 1019.1
20260506111003 61 129 1.0 3.0 0.00 0.00 0.00 80 1019.3
20260506104002 62 129 2.0 5.0 0.00 0.00 0.00 79 1019.1
20260506103003 61 114 2.0 3.0 0.00 0.00 0.00 80 1019.0
20260506102003 61 105 0.0 1.0 0.00 0.00 0.00 79 1019.1
20260506101004 62 58 1.0 2.0 0.00 0.00 0.00 78 1019.1
20260506100003 62 26 0.0 2.0 0.00 0.00 0.00 78 1019.1
20260506095003 62 83 1.0 2.0 0.00 0.00 0.00 78 1019.0
20260506094003 62 90 0.0 3.0 0.00 0.00 0.00 78 1019.0
20260506093003 63 109 2.0 3.0 0.00 0.00 0.00 77 1019.2
20260506092003 63 133 1.0 3.0 0.00 0.00 0.00 77 1019.0
20260506091003 63 114 1.0 2.0 0.00 0.00 0.00 76 1019.1
20260506090003 63 92 1.0 2.0 0.00 0.00 0.00 76 1019.0
20260506084003 63 105 1.0 2.0 0.00 0.00 0.00 76 1019.2
20260506083003 63 118 1.0 2.0 0.00 0.00 0.00 76 1019.3